Probability
0 0 0 0 0 0 0 0 0 0 0 0 0 0 0 0 0 0 0 0 3 6 10 16 42 32 32 29 29 29 26 26 26 23 26 29 26 26 23 23 23 19 16 16 16 13 10 13 3
0 0 0 0 0 0 0 0 0 0 0 0 0 0 0 0 0 0 0 0 3 6 13 16 42 35 26 29 19 29 23 19 19 26 23 23 26 23 23 23 19 19 19 19 10 10 3 3 0
0 0 0 0 0 0 0 0 0 0 0 0 0 0 0 0 0 0 0 3 6 10 13 23 42 35 29 26 23 19 16 16 19 23 23 23 23 23 23 16 19 16 16 10 6 3 6 3 3
0 0 0 0 0 0 0 0 0 0 0 0 0 0 0 0 0 0 3 3 6 13 19 32 39 39 35 29 19 16 19 16 19 19 23 23 23 23 23 16 10 13 6 6 6 0 0 0 0
0 0 0 0 0 0 0 0 0 0 0 0 0 0 0 0 0 3 3 6 10 16 19 32 39 35 29 26 19 19 19 19 19 19 19 19 19 16 13 10 10 10 6 6 3 0 0 0 0
0 0 0 0 0 0 0 0 0 0 0 0 0 0 0 0 3 3 3 6 13 16 23 32 39 35 29 23 19 19 23 19 19 19 19 19 16 10 10 10 6 10 6 6 0 0 0 0 0
0 0 0 0 0 0 0 0 0 0 0 0 0 0 0 0 3 3 3 6 13 19 19 29 26 23 23 26 23 19 26 16 16 16 13 13 13 13 6 10 6 6 3 3 0 0 0 0 0
0 0 0 0 0 0 0 0 0 0 0 0 0 0 0 0 3 3 3 6 10 16 19 19 19 16 10 10 13 10 6 13 13 13 6 0 3 6 6 6 6 6 6 6 0 0 0 0 0
0 0 0 0 0 0 0 0 0 0 0 0 0 0 0 0 3 3 0 3 10 16 16 19 19 13 13 6 3 6 6 6 3 0 0 0 0 0 0 0 0 3 0 0 0 0 0 0 0
0 0 0 0 0 0 0 0 0 0 0 0 0 0 0 3 3 3 3 6 10 16 19 16 19 16 10 6 6 6 3 6 0 0 0 0 0 0 0 0 0 0 0 0 0 0 0 0 0
0 0 0 0 0 0 0 0 0 0 0 0 0 0 0 0 0 3 3 3 6 16 16 13 13 13 13 10 6 6 6 3 3 0 0 0 0 0 0 0 0 0 0 0 0 0 0 0 0
0 0 0 0 0 0 0 0 0 0 0 0 0 0 0 0 0 0 3 3 6 10 16 13 10 13 10 10 10 6 6 3 3 0 0 0 0 0 0 0 0 0 0 0 0 0 0 0 0
0 0 0 0 0 0 0 0 0 0 0 0 0 0 0 0 0 0 0 6 6 10 10 10 10 13 10 10 6 6 3 3 0 0 0 0 0 0 0 0 0 0 0 0 0 0 0 0 0
0 0 0 0 0 0 0 0 0 0 0 0 0 0 0 0 0 0 0 3 6 6 13 10 10 10 10 6 6 3 3 3 0 0 0 0 0 0 0 0 0 0 0 0 0 0 0 0 0
0 0 0 0 0 0 0 0 0 0 0 0 0 0 0 0 0 0 0 0 3 3 6 10 10 6 6 6 6 3 3 0 0 0 0 0 0 0 0 0 0 0 0 0 0 0 0 0 0
0 0 0 0 0 0 0 0 0 0 0 0 0 0 0 0 0 0 0 3 3 3 3 3 3 6 6 6 3 3 3 0 0 0 0 0 0 0 0 0 0 0 0 0 0 0 0 0 0
0 0 0 0 0 0 0 0 0 0 0 0 0 0 0 0 0 0 0 0 3 3 3 3 6 6 6 3 3 0 0 0 0 0 0 0 0 0 0 0 0 0 0 0 0 0 0 0 0
0 0 0 0 0 0 0 0 0 0 0 0 0 0 0 0 0 0 0 0 0 3 3 3 3 6 3 0 0 0 0 0 0 0 0 0 0 0 0 0 0 0 0 0 0 0 0 0 0
0 0 0 0 0 0 0 0 0 0 0 0 0 0 0 0 0 0 0 0 0 3 3 3 3 3 0 0 0 0 0 0 0 0 0 0 0 0 0 0 0 0 0 0 0 0 0 0 0
0 0 0 0 0 0 0 0 0 0 0 0 0 0 0 0 0 0 0 0 0 3 3 3 3 3 0 0 0 0 0 0 0 0 0 0 0 0 0 0 0 0 0 0 0 0 0 0 0
0 0 0 0 0 0 0 0 0 0 0 0 0 0 0 0 0 0 0 0 0 0 3 3 3 0 0 0 0 0 0 0 0 0 0 0 0 0 0 0 0 0 0 0 0 0 0 0 0
0 0 0 0 0 0 0 0 0 0 0 0 0 0 0 0 0 0 0 0 0 0 3 3 0 0 0 0 0 0 0 0 0 0 0 0 0 0 0 0 0 0 0 0 0 0 0 0 0
0 0 0 0 0 0 0 0 0 0 0 0 0 0 0 0 0 0 0 0 0 0 3 0 0 0 0 0 0 0 0 0 0 0 0 0 0 0 0 0 0 0 0 0 0 0 0 0 0
0 0 0 0 0 0 0 0 0 0 0 0 0 0 0 0 0 0 0 0 0 0 3 0 0 0 0 0 0 0 0 0 0 0 0 0 0 0 0 0 0 0 0 0 0 0 0 0 0
0 0 0 0 0 0 0 0 0 0 0 0 0 0 0 0 0 0 0 0 0 0 0 0 0 0 0 0 0 0 0 0 0 0 0 0 0 0 0 0 0 0 0 0 0 0 0 0 0
0 0 0 0 0 0 0 0 0 0 0 0 0 0 0 0 0 0 0 0 0 0 0 0 0 0 0 0 0 0 0 0 0 0 0 0 0 0 0 0 0 0 0 0 0 0 0 0 0
0 0 0 0 0 0 0 0 0 0 0 0 0 0 0 0 0 0 0 0 0 0 0 0 0 0 0 0 0 0 0 0 0 0 0 0 0 0 0 0 0 0 0 0 0 0 0 0 0
0 0 0 0 0 0 0 0 0 0 0 0 0 0 0 0 0 0 0 0 0 0 0 0 0 0 0 0 0 0 0 0 0 0 0 0 0 0 0 0 0 0 0 0 0 0 0 0 0
0 0 0 0 0 0 0 0 0 0 0 0 0 0 0 0 0 0 0 0 0 0 0 0 0 0 0 0 0 0 0 0 0 0 0 0 0 0 0 0 0 0 0 0 0 0 0 0 0
0 0 0 0 0 0 0 0 0 0 0 0 0 0 0 0 0 0 0 0 0 0 0 0 0 0 0 0 0 0 0 0 0 0 0 0 0 0 0 0 0 0 0 0 0 0 0 0 0
Height
5798 5799 5800 5801 5803 5804 5805 5807 5809 5810 5810 5811 5812 5812 5813 5815 5816 5819 5818 5817 5818 5819 5820 5821 5822 5822 5823 5824 5825 5826 5827 5827 5828 5828 5829 5830 5830 5831 5831 5832 5832 5833 5833 5833 5834 5835 5835 5836 5836
5793 5794 5795 5796 5798 5799 5802 5803 5805 5806 5806 5807 5808 5808 5809 5810 5811 5813 5813 5814 5815 5816 5817 5818 5819 5820 5820 5821 5822 5823 5824 5825 5825 5826 5827 5827 5828 5829 5829 5830 5830 5831 5831 5831 5832 5832 5833 5834 5834
5788 5789 5790 5791 5793 5795 5798 5799 5800 5801 5802 5803 5803 5804 5805 5806 5807 5808 5809 5810 5811 5812 5813 5814 5816 5817 5817 5818 5819 5820 5821 5822 5823 5823 5824 5824 5825 5826 5826 5827 5828 5828 5829 5829 5830 5830 5831 5831 5832
5782 5783 5784 5786 5788 5791 5792 5794 5795 5796 5797 5798 5799 5800 5801 5803 5804 5804 5805 5806 5807 5809 5810 5811 5812 5813 5814 5815 5816 5817 5818 5819 5819 5820 5821 5821 5822 5822 5823 5824 5825 5825 5826 5827 5827 5828 5828 5829 5830
5776 5777 5778 5779 5783 5785 5787 5788 5789 5791 5792 5793 5794 5795 5797 5798 5799 5800 5801 5802 5803 5804 5806 5807 5808 5809 5810 5811 5812 5813 5814 5815 5816 5816 5817 5818 5818 5819 5820 5820 5821 5822 5823 5824 5824 5825 5825 5826 5827
5769 5771 5772 5773 5777 5780 5781 5782 5783 5785 5787 5788 5789 5790 5792 5793 5794 5795 5797 5798 5799 5800 5801 5802 5804 5805 5806 5807 5808 5809 5810 5811 5812 5812 5813 5814 5815 5815 5816 5817 5817 5818 5819 5820 5821 5822 5822 5823 5824
5763 5763 5764 5768 5770 5773 5775 5776 5777 5779 5781 5782 5783 5785 5787 5788 5789 5790 5792 5793 5794 5795 5797 5798 5799 5800 5802 5803 5804 5805 5806 5807 5807 5808 5809 5810 5810 5811 5812 5812 5813 5814 5815 5816 5817 5818 5818 5819 5820
5755 5756 5757 5760 5763 5767 5769 5769 5771 5772 5774 5776 5777 5779 5781 5782 5783 5785 5786 5788 5789 5790 5792 5793 5794 5795 5797 5798 5799 5800 5801 5802 5802 5803 5804 5805 5806 5806 5807 5808 5808 5809 5810 5811 5812 5813 5814 5815 5816
5748 5749 5750 5754 5757 5760 5761 5762 5764 5765 5767 5768 5771 5773 5775 5776 5777 5779 5781 5782 5784 5785 5786 5787 5789 5790 5791 5792 5793 5794 5795 5796 5797 5798 5799 5800 5800 5801 5802 5802 5803 5804 5805 5806 5807 5808 5809 5810 5811
5739 5741 5745 5748 5750 5751 5752 5754 5756 5758 5759 5761 5763 5766 5767 5769 5771 5773 5774 5776 5777 5779 5780 5781 5783 5784 5785 5786 5787 5788 5789 5790 5791 5792 5793 5794 5795 5795 5796 5797 5798 5798 5799 5800 5801 5802 5804 5805 5806
5732 5734 5738 5739 5741 5742 5744 5746 5747 5749 5752 5754 5756 5758 5760 5762 5764 5766 5768 5769 5771 5772 5774 5775 5776 5777 5778 5780 5781 5782 5783 5784 5785 5786 5786 5787 5788 5789 5790 5791 5792 5792 5793 5794 5795 5796 5797 5799 5800
5724 5727 5729 5731 5732 5733 5735 5737 5739 5741 5744 5746 5748 5750 5752 5754 5756 5758 5760 5762 5763 5765 5766 5768 5769 5770 5771 5772 5774 5774 5775 5777 5778 5779 5779 5780 5781 5782 5783 5784 5785 5786 5787 5788 5789 5790 5791 5792 5793
5716 5718 5720 5721 5723 5724 5725 5727 5729 5732 5735 5737 5739 5741 5744 5746 5748 5750 5752 5753 5755 5757 5759 5760 5761 5763 5764 5765 5766 5767 5768 5769 5770 5771 5772 5773 5774 5775 5776 5777 5778 5779 5780 5781 5782 5783 5784 5785 5787
5707 5708 5710 5711 5713 5714 5716 5718 5720 5724 5726 5728 5730 5733 5735 5737 5739 5741 5743 5745 5747 5749 5750 5752 5753 5754 5755 5757 5758 5759 5760 5761 5762 5763 5764 5765 5766 5767 5768 5769 5770 5771 5772 5773 5775 5776 5777 5778 5779
5698 5698 5699 5701 5703 5704 5706 5707 5711 5715 5716 5718 5721 5723 5726 5728 5730 5732 5734 5736 5738 5740 5741 5743 5744 5745 5747 5748 5749 5750 5751 5752 5753 5754 5755 5756 5757 5758 5760 5761 5762 5763 5764 5765 5766 5768 5769 5770 5771
5687 5688 5689 5692 5693 5694 5697 5698 5703 5705 5706 5708 5711 5713 5715 5718 5720 5722 5725 5727 5728 5730 5732 5733 5735 5736 5738 5739 5740 5741 5742 5743 5744 5745 5746 5747 5748 5749 5750 5752 5753 5754 5755 5756 5758 5759 5760 5761 5763
5678 5678 5680 5682 5684 5685 5686 5688 5692 5694 5696 5698 5700 5703 5705 5707 5710 5712 5714 5716 5718 5720 5722 5723 5725 5727 5728 5729 5730 5731 5732 5733 5734 5735 5736 5737 5738 5739 5740 5741 5743 5744 5745 5747 5748 5750 5751 5752 5753
5670 5671 5671 5673 5674 5675 5676 5678 5681 5683 5684 5687 5689 5691 5694 5696 5699 5702 5704 5706 5708 5710 5712 5713 5715 5717 5718 5719 5720 5721 5722 5723 5724 5725 5726 5726 5727 5728 5729 5731 5732 5733 5735 5736 5738 5739 5741 5742 5743
5662 5662 5663 5664 5665 5665 5666 5667 5670 5672 5673 5675 5678 5680 5683 5685 5688 5690 5692 5694 5697 5699 5701 5703 5705 5706 5708 5709 5710 5711 5712 5713 5714 5715 5716 5717 5717 5718 5719 5720 5722 5723 5724 5726 5727 5729 5730 5731 5733
5653 5653 5654 5655 5655 5655 5656 5657 5659 5661 5662 5664 5666 5669 5671 5674 5676 5679 5681 5683 5685 5688 5690 5692 5694 5695 5697 5698 5700 5701 5702 5703 5704 5705 5706 5707 5708 5708 5709 5711 5712 5713 5714 5715 5716 5718 5719 5721 5722
5645 5645 5646 5645 5645 5645 5646 5647 5649 5650 5651 5653 5655 5657 5660 5662 5665 5667 5669 5671 5673 5676 5678 5680 5682 5684 5685 5687 5688 5689 5690 5691 5693 5694 5695 5697 5698 5699 5699 5701 5702 5703 5704 5705 5706 5707 5708 5709 5711
5637 5637 5636 5635 5635 5635 5636 5635 5639 5640 5640 5642 5644 5646 5648 5651 5653 5655 5657 5659 5662 5664 5666 5668 5670 5672 5673 5675 5676 5678 5679 5681 5683 5684 5685 5686 5688 5689 5689 5690 5691 5692 5693 5695 5695 5696 5697 5698 5699
5628 5628 5627 5626 5625 5625 5626 5625 5629 5630 5630 5632 5634 5636 5637 5639 5641 5643 5645 5648 5650 5652 5654 5656 5658 5660 5662 5663 5665 5666 5668 5670 5671 5672 5674 5675 5677 5678 5679 5680 5681 5682 5683 5684 5685 5685 5686 5686 5687
5619 5619 5618 5616 5615 5615 5617 5616 5617 5620 5621 5622 5623 5624 5625 5627 5628 5630 5633 5635 5637 5639 5641 5643 5645 5647 5649 5651 5653 5654 5656 5658 5659 5661 5662 5664 5665 5667 5668 5669 5670 5671 5672 5673 5673 5674 5674 5675 5675
5610 5610 5608 5607 5606 5607 5608 5606 5608 5611 5611 5611 5612 5613 5614 5615 5616 5618 5620 5622 5625 5627 5629 5631 5633 5635 5637 5638 5640 5642 5644 5645 5647 5649 5650 5652 5654 5655 5657 5658 5659 5660 5660 5661 5662 5662 5663 5663 5664
5602 5602 5601 5599 5598 5598 5598 5596 5600 5601 5601 5601 5601 5602 5602 5603 5604 5606 5608 5610 5612 5614 5616 5618 5620 5622 5624 5625 5627 5629 5631 5633 5635 5636 5638 5640 5642 5643 5645 5646 5647 5648 5649 5649 5650 5651 5651 5651 5652
5594 5593 5594 5592 5589 5588 5588 5589 5591 5591 5590 5590 5590 5591 5591 5592 5592 5594 5596 5598 5600 5602 5604 5605 5607 5609 5611 5612 5614 5616 5618 5620 5622 5624 5626 5627 5629 5631 5632 5634 5635 5636 5636 5637 5638 5638 5639 5640 5640
5587 5586 5585 5583 5580 5578 5579 5580 5580 5580 5580 5580 5579 5579 5580 5581 5581 5582 5584 5585 5588 5589 5591 5593 5595 5596 5598 5599 5601 5603 5605 5607 5609 5611 5613 5615 5617 5618 5620 5621 5622 5623 5624 5625 5625 5626 5627 5627 5628
5579 5578 5576 5574 5573 5571 5569 5572 5571 5570 5570 5569 5569 5569 5569 5569 5570 5571 5572 5574 5575 5577 5579 5581 5582 5584 5585 5587 5589 5590 5592 5594 5596 5598 5600 5602 5604 5606 5607 5608 5609 5610 5611 5612 5613 5614 5615 5615 5616
5571 5570 5569 5567 5565 5563 5561 5565 5563 5562 5560 5559 5559 5558 5558 5558 5559 5560 5561 5562 5564 5565 5567 5569 5570 5572 5573 5575 5577 5578 5580 5582 5584 5586 5588 5589 5591 5593 5594 5595 5597 5598 5599 5600 5601 5602 5602 5603 5604
Wind_Speed
22 22 23 23 23 23 21 19 18 18 18 19 19 19 19 18 18 18 18 17 17 17 17 17 16 16 15 15 14 14 13 13 12 12 12 11 11 11 11 11 11 10 10 9 10 9 9 9 9
25 25 25 25 26 24 22 20 19 19 20 20 20 20 19 19 19 18 18 18 18 18 18 18 18 17 16 16 16 15 15 14 14 13 13 13 13 12 12 12 12 11 11 11 11 11 10 11 11
26 26 27 27 27 25 23 22 21 21 21 21 21 21 21 20 19 19 19 19 19 19 19 19 18 18 17 17 17 16 15 15 15 15 15 15 15 14 13 13 13 13 12 12 12 12 12 11 12
27 28 29 28 26 24 24 24 23 23 23 23 22 22 21 21 21 20 20 20 20 20 20 20 19 19 18 18 17 17 16 16 16 16 16 16 16 16 16 15 15 14 14 14 13 13 13 13 12
29 29 30 29 26 24 24 25 24 24 24 24 24 23 22 22 22 21 21 21 21 21 21 21 21 21 20 20 19 19 18 18 17 17 17 17 18 18 17 17 16 16 16 15 15 15 15 14 14
30 30 31 29 27 26 26 26 25 25 25 25 25 25 24 23 23 23 23 22 22 22 22 22 22 22 22 21 21 21 20 20 20 20 20 20 19 19 19 18 18 18 18 17 17 17 17 16 15
30 31 32 30 29 28 27 28 27 26 26 27 27 27 26 25 25 25 24 24 24 24 24 23 24 23 23 23 23 23 22 22 22 21 21 21 21 21 21 21 20 20 20 20 19 19 19 18 18
31 31 32 31 30 29 28 29 29 28 28 28 28 28 27 26 26 26 26 25 25 25 25 25 25 25 25 25 25 25 24 24 23 23 23 23 23 22 22 23 22 22 22 22 21 21 21 21 20
30 33 32 31 30 29 29 30 30 30 30 29 28 28 28 28 28 27 27 27 27 27 27 26 26 27 27 27 27 27 27 26 25 25 25 25 25 24 25 24 24 24 24 24 23 23 23 23 22
31 32 31 31 30 30 31 31 32 32 31 30 30 29 30 30 30 29 29 29 29 29 29 28 28 28 28 29 29 29 28 28 27 27 26 26 26 26 26 26 26 26 26 26 25 25 25 24 24
32 33 32 32 31 32 32 32 33 33 33 32 32 31 31 32 31 31 31 31 31 31 30 31 31 30 30 30 30 30 30 30 30 29 29 28 28 28 28 28 27 27 27 27 27 26 26 26 26
33 33 33 33 33 33 33 33 34 34 34 34 34 34 34 33 33 33 33 33 33 33 32 33 33 33 32 32 32 32 32 32 32 31 31 31 30 30 29 29 29 29 29 28 28 28 28 27 27
33 34 34 35 35 35 36 35 35 35 35 35 35 35 35 35 35 35 35 35 34 34 34 34 34 34 34 34 33 34 33 33 33 33 32 32 32 32 31 31 31 31 31 31 30 30 30 29 29
34 35 36 36 36 36 37 38 38 36 36 37 37 37 37 36 37 37 37 36 35 35 35 35 35 35 35 35 35 35 35 35 34 34 34 34 34 34 34 34 33 33 33 33 32 32 32 31 31
34 35 36 37 37 37 38 39 39 37 37 38 38 38 38 38 38 38 38 38 37 37 37 37 37 36 36 36 37 37 37 37 36 37 37 37 37 36 36 36 36 35 35 35 35 34 34 33 33
33 34 36 37 37 38 39 40 39 39 39 39 39 40 39 39 39 39 39 39 39 38 38 38 38 37 37 37 38 38 38 38 38 38 38 39 39 39 39 38 38 37 37 37 37 37 36 36 35
32 33 34 36 37 37 38 39 39 40 40 40 40 41 41 41 41 40 40 40 40 39 39 39 39 39 39 39 39 39 39 39 39 39 39 40 40 40 40 40 40 39 39 38 38 38 38 38 38
31 32 33 34 35 36 38 38 39 39 41 41 41 42 42 43 42 42 42 41 41 41 41 41 40 40 40 40 40 40 40 40 40 40 40 39 40 40 40 40 40 40 40 40 40 40 40 40 39
30 31 31 32 34 36 37 38 39 40 41 42 42 42 43 43 43 43 43 43 43 44 43 42 42 41 42 41 41 41 41 41 40 40 39 39 39 40 40 40 40 40 40 41 41 41 41 41 41
30 31 31 32 34 36 37 38 38 39 41 42 42 43 43 44 44 44 44 44 44 45 45 44 44 44 44 43 43 43 42 42 41 41 41 40 40 40 39 40 40 40 40 41 41 41 41 42 42
30 31 32 33 34 36 37 38 38 38 40 40 41 42 43 44 44 45 45 45 45 45 45 46 46 46 46 46 45 44 44 43 43 43 43 42 42 41 41 41 40 40 41 41 40 41 42 42 42
31 31 32 33 34 35 36 38 36 37 38 39 40 41 42 43 44 45 45 45 46 46 46 46 46 46 47 46 45 45 45 44 44 43 43 44 43 43 41 42 41 41 41 41 41 41 42 43 43
30 31 32 33 35 36 35 37 36 36 37 38 40 40 41 42 44 44 45 45 45 46 46 46 47 47 47 47 46 45 45 45 45 45 45 45 44 44 44 43 43 42 42 42 42 42 42 43 43
30 31 31 32 33 35 34 36 36 35 35 36 38 39 40 41 43 44 44 45 45 46 46 47 47 47 48 48 48 47 47 47 47 47 46 46 46 45 45 45 44 44 43 43 43 44 44 44 44
28 28 29 31 32 33 33 35 34 33 34 35 36 37 39 41 42 43 44 45 45 46 46 47 47 48 48 48 48 48 49 48 48 48 48 48 47 47 46 46 46 45 45 45 45 45 45 45 45
27 27 29 31 31 32 32 35 33 34 34 35 35 37 38 39 40 42 43 44 44 45 46 47 47 48 48 49 49 49 49 49 49 49 49 49 48 47 47 47 46 46 45 45 45 46 46 45 45
26 26 27 30 31 32 32 33 34 34 35 36 35 36 37 38 39 41 41 42 43 43 44 45 46 47 48 49 49 48 49 49 49 50 49 49 49 48 48 47 47 46 46 46 46 46 46 46 46
26 27 27 29 31 32 32 31 32 32 33 34 34 36 37 37 39 40 40 41 42 42 43 44 44 45 46 47 48 49 49 49 49 50 50 50 50 50 49 48 48 47 47 47 47 46 46 46 46
26 27 28 29 31 32 33 30 30 30 30 31 33 34 34 35 37 38 39 40 41 41 42 42 44 44 45 46 47 48 48 49 49 50 50 50 50 50 50 49 48 48 47 47 47 47 47 47 47
26 27 28 30 31 32 33 32 29 30 30 30 31 33 34 34 34 35 36 38 39 40 41 42 43 44 45 45 45 46 46 47 48 48 49 50 50 51 50 49 49 48 48 48 48 48 48 48 48
Wind_Direction
245 246 245 244 244 245 245 246 246 246 245 245 245 246 247 247 245 245 244 242 240 237 235 233 234 235 235 235 235 234 233 233 232 234 235 235 236 236 238 240 242 244 246 247 243 240 239 239 239
245 247 246 245 245 247 246 245 246 246 246 245 245 245 246 246 246 245 244 242 239 237 235 234 234 236 237 237 237 237 236 235 235 236 237 239 240 240 241 243 246 248 249 249 247 245 245 243 244
247 247 248 248 249 248 248 246 246 246 246 246 245 245 246 247 246 245 244 242 240 238 237 237 237 237 238 238 240 240 239 238 238 239 240 239 241 243 245 246 247 249 249 248 248 248 248 248 248
248 247 248 249 249 248 247 246 246 246 245 245 245 245 246 247 246 245 243 242 240 239 238 238 239 239 239 240 241 242 242 242 242 243 243 242 243 245 246 248 248 248 248 249 248 248 249 250 250
247 247 249 250 249 248 247 247 246 245 245 245 245 245 246 246 246 245 243 243 241 240 239 239 239 240 241 242 242 244 245 245 245 245 246 248 249 248 248 249 250 250 249 249 249 248 249 251 252
246 248 249 251 250 249 247 247 246 246 246 246 245 245 245 245 245 244 243 243 242 242 242 241 241 241 242 243 244 245 246 247 247 248 248 250 251 251 251 251 251 251 250 250 250 249 249 251 253
247 248 249 250 249 248 247 248 246 245 244 244 244 244 245 245 245 245 244 244 243 243 244 243 242 243 243 244 245 246 246 248 249 250 250 250 250 251 252 252 253 254 253 251 251 252 252 252 252
249 249 249 249 249 248 248 248 247 245 244 244 244 244 244 245 244 245 246 246 245 244 244 244 244 244 245 245 246 247 248 249 250 251 252 252 252 252 253 254 254 255 254 252 252 253 253 253 253
252 250 250 250 250 249 248 248 247 246 245 244 244 244 244 245 244 245 245 247 247 246 246 246 246 246 246 247 248 248 249 250 250 251 252 253 254 254 254 254 255 255 255 254 253 254 254 254 253
253 253 254 253 252 250 248 247 247 245 244 243 243 243 243 244 245 245 246 248 248 248 248 248 248 248 248 248 249 249 249 250 251 252 253 254 255 255 254 254 255 256 256 256 255 254 253 253 254
256 256 255 253 252 251 249 248 247 246 244 244 244 243 243 244 246 246 247 247 248 249 250 250 250 250 250 249 249 250 250 251 252 252 253 254 255 256 255 255 256 257 256 256 256 254 253 254 254
258 256 255 254 252 251 249 247 247 247 245 244 245 245 244 245 246 247 248 248 249 250 250 251 252 252 251 251 250 250 251 252 253 253 254 254 255 256 257 256 256 256 255 255 254 254 254 255 255
259 257 255 254 253 251 249 248 247 246 246 246 245 246 246 246 247 248 249 249 249 250 250 251 252 252 252 251 250 251 252 253 254 254 254 255 256 256 257 256 256 256 255 255 254 254 254 255 255
260 258 255 254 253 252 251 249 247 245 246 246 246 246 246 247 248 249 249 250 250 250 250 251 251 252 252 251 251 251 252 253 254 255 255 255 256 256 256 256 256 256 255 255 255 255 255 256 255
261 258 255 253 253 252 251 250 249 247 247 247 247 247 247 247 248 249 249 250 251 251 251 252 251 251 252 252 252 252 253 254 254 255 256 256 256 256 256 256 256 256 256 255 255 256 256 256 257
260 258 256 255 255 254 253 252 251 249 249 249 248 248 247 247 247 248 249 250 251 251 251 251 252 252 252 253 253 254 253 255 255 256 257 257 257 257 257 256 256 256 256 256 256 256 256 257 257
260 259 258 258 257 256 256 255 253 252 251 250 249 249 248 247 248 248 249 250 250 250 250 250 252 252 252 253 254 254 254 255 256 257 258 258 257 257 257 256 256 256 256 256 256 256 257 257 257
263 262 261 261 260 259 258 257 255 254 252 251 250 249 249 248 249 249 249 249 250 250 250 250 250 251 252 253 254 255 255 255 256 257 257 257 257 257 257 257 256 257 257 257 257 257 257 258 257
266 264 264 263 261 260 259 259 257 255 254 253 252 251 250 249 249 250 250 249 249 249 249 249 249 250 251 252 254 255 255 255 255 256 256 256 256 257 257 257 257 257 258 258 258 258 258 258 258
266 266 265 264 263 262 262 260 259 258 256 255 253 252 251 250 250 250 250 250 250 250 249 249 249 250 251 253 254 255 255 254 254 255 255 255 256 256 257 258 258 258 258 258 258 258 258 258 258
267 267 266 265 264 262 263 261 260 259 258 256 254 253 252 251 252 251 251 251 251 251 251 250 250 250 251 253 253 254 254 254 254 254 254 255 255 255 256 257 257 258 259 259 258 259 259 259 259
268 268 267 266 265 264 263 264 261 260 259 257 257 256 255 254 253 253 252 251 251 251 251 251 251 252 252 253 253 253 253 254 254 253 253 254 254 255 257 257 258 259 260 259 259 260 260 260 260
270 269 268 268 267 266 264 267 265 262 260 260 259 258 257 256 255 253 253 252 251 251 251 251 250 251 252 252 252 252 253 253 253 253 253 253 254 256 257 258 258 259 259 260 261 261 261 261 261
271 272 271 270 270 269 266 268 267 265 263 262 259 258 259 258 256 255 254 253 252 251 251 251 251 251 251 252 253 252 252 252 253 252 253 253 254 256 257 258 258 259 260 261 261 261 261 261 261
271 272 272 272 271 271 268 267 268 268 266 264 261 260 260 260 258 256 255 254 253 252 252 252 252 252 252 252 252 252 252 252 253 252 252 253 254 256 257 258 259 260 261 262 262 261 261 262 261
273 270 270 272 273 273 271 269 269 268 269 267 264 262 262 260 259 257 256 254 253 252 252 252 252 252 252 252 252 252 252 252 252 252 252 253 254 256 256 258 259 260 261 262 262 262 262 262 262
276 271 272 273 274 275 274 273 270 270 270 268 266 264 263 261 259 258 256 255 254 253 252 252 252 251 251 251 251 251 251 251 252 252 252 253 254 255 256 258 259 260 261 262 262 261 261 262 262
276 276 274 273 274 276 278 276 274 272 270 270 268 266 265 263 261 259 257 256 255 254 253 253 253 252 251 251 251 251 250 250 251 253 253 253 254 255 257 258 259 261 262 262 261 261 261 261 261
279 277 275 274 274 275 279 278 275 275 273 269 268 267 266 265 263 261 258 256 254 253 252 252 252 252 251 251 251 251 250 250 251 253 253 253 254 255 257 258 260 261 261 261 261 262 261 261 261
281 279 277 276 276 276 279 280 276 274 273 271 269 269 267 266 264 261 258 256 254 253 253 252 252 252 251 252 252 251 251 251 252 253 253 253 255 255 256 258 259 259 260 261 261 262 261 261 261